DELTA 1 DEB, 29187

Orbit data source: Space-Track

DELTA 1 DEB, 29187 is space debris in LEO originally from a launch on Thu, 11 Jan 1968 UTC launched from the Air Force Western Test Range (AFWTR). Debris objects in space refer to the collection of defunct objects orbiting the Earth. Examples of debris include non-operational satellites, rocket bodies, and fragments generated from explosions, collisions, or faulty payload assembly.

Loading next visibility...
Identifier
29187, 1968-002L
Orbit
LEO
Country
Flag of USUS
Related business
Manufacturer
Unknown
Mission
Spacecraft
Bus & Motor
Unknown
Mass
Unknown
Launch date (UTC)
1968-01-11 (59 years ago)
Launch vehicle
Unknown
Launch site
Air Force Western Test Range (AFWTR)
Object type
Payload
Rocket body
Debris
Shape & HBR
Unknown shape, 0.1 m
Radar Cross Section
Small (<0.1 m²)

Expand to show TLE details & history
Last TLE update: 4 weeks ago

TLE from 4 weeks ago
0 DELTA 1 DEB
1 29187U 68002L   26183.15610870  .00000176  00000-0  78333-3 0  9992
2 29187 105.8029 319.9849 0295938 200.0211 341.8965 12.91296026604047
Epoch: 2026-07-02T03:44Z
TLE epoch observation values (Epoch: 2026-07-02T03:44:47.791Z)
Latitude
-0.90513°
Longitude
163.32835°
Altitude
1,083.722 km
Speed
7.412 km/s
True Right ascension
09h 18m 55s
True Declination
0° 53' 60"
Sunlit
Object was in daylight at epoch
Visualization orbit readout
Latitude
Unknown
Longitude
Unknown
Altitude
Unknown
Speed
Unknown
Apparent Right ascension
Unknown
Apparent Declination
Unknown
Sunlit
N/A
Visualization observer readout
Local Sidereal Time
03:07:40
Azimuth
Unknown
Elevation
Unknown
Doppler factor
Unknown
Orbital elements
Apogee altitude
1,521.208 km
Perigee altitude
1,067.103 km
Semi-major axis
7,672.293 km
Eccentricity
0.02959
Inclination
105.8029°
RAAN
319.9849°
Arg. of periapsis
200.0211°
True anomaly
340.80446°
Mean anomaly
341.8965°
Eccentric anomaly
341.35439°
Mean motion
3.22965 °/min
Orbital period
111.47 mins
BSTAR
0.00078333
Loading maneuver chart data...
Computing Atmospheric mass density...
Loading historical data...
Loading historical data...
Loading historical data...
Loading historical data...
Loading historical data...
Loading historical data...
Loading historical data...

Documentation

Showing up to 5 results
|